Regional Weather Roundup
Issued by NWS

Home | Current Version | Previous Version | Text Only | Print | Product List | Glossary Off
Versions: 1 2 3 4 5 6 7 8 9 10 11 12 13 14 15 16 17 18 19 20 21 22 23 24 25 26 27 28 29 30 31 32 33 34 35 36 37 38 39 40 41 42 43 44 45 46 47 48 49 50

000
ASUS43 KIND 202109
RWRIN

WEATHER ROUNDUP FOR INDIANA
NATIONAL WEATHER SERVICE INDIANAPOLIS IN
400 PM EST SAT DEC 20 2014

NOTE: "FAIR" INDICATES FEW OR NO CLOUDS BELOW 12,000 FEET WITH NO
SIGNIFICANT WEATHER AND/OR OBSTRUCTIONS TO VISIBILITY.

* - STATION DOES NOT REPORT WEATHER SUCH AS PRECIPITATION OR FOG.

+ - STATION NOT QUALITY CONTROLLED BY THE NATIONAL WEATHER SERVICE.
    USE DATA WITH CAUTION...ESPECIALLY DEWPOINT AND RELATIVE
    HUMIDITY OBSERVATIONS.

INZ001>003-010>013-019-020-202200-
NORTHWEST INDIANA

CITY           SKY/WX    TMP DP  RH WIND       PRES   REMARKS
GARY /AIRPORT/ CLOUDY    34  23  64 W9        30.26R WCI  26
KNOX *+        CLOUDY    32  23  68 W5        30.25R WCI  28
LA PORTE +     CLOUDY    34  27  75 SW7       30.25R WCI  28
MICHIGAN CITY+ CLOUDY    32  23  69 SW3       30.26R
MONTICELLO +   CLOUDY    32  26  77 CALM      30.25S
RENSSELAER +   CLOUDY    34  30  86 S3        30.26S
VALPARAISO     CLOUDY    32  24  72 SW6       30.26R WCI  26

$$

LMZ046-743>745-202200-
SOUTHERN LAKE MICHIGAN

STATION/POSITION TIME  TEMP WIND        PRES
                       AIR  DIR/SP/G
                 (UTC) (F)  (DEG/KT/KT) (MB)

$$

INZ004-005-014>016-021>024-202200-
NORTH CENTRAL INDIANA

CITY           SKY/WX    TMP DP  RH WIND       PRES   REMARKS
ELKHART        CLOUDY    30  27  86 CALM      30.26  FOG
GOSHEN         CLOUDY    31  27  85 CALM      30.25R FOG
LOGANSPORT +   CLOUDY    32  27  80 CALM      30.27R
PERU/GRISSOM   CLOUDY    32  30  94 CALM      30.25R
ROCHESTER +    PTSUNNY   34  30  86 W6        30.26R WCI  29
SOUTH BEND     CLOUDY    33  24  69 CALM      30.25R
WARSAW +       CLOUDY    32  27  80 W5        30.25R WCI  27

$$

INZ006>009-017-018-025>027-202200-
NORTHEAST INDIANA

CITY           SKY/WX    TMP DP  RH WIND       PRES   REMARKS
ANGOLA *+      CLOUDY    30  23  74 NW5       30.23R WCI  25
AUBURN +       CLOUDY    32  25  74 CALM      30.25R
FORT WAYNE     CLOUDY    32  25  75 SW5       30.25S WCI  27
HUNTINGTON +   CLOUDY    32  25  76 CALM      30.25R

$$

INZ028-029-035-036-043>045-051>053-202200-
WEST CENTRAL INDIANA

CITY           SKY/WX    TMP DP  RH WIND       PRES   REMARKS
GREENCASTLE +  CLOUDY    32  21  64 CALM      30.26R
LAFAYETTE      CLOUDY    32  24  72 SW3       30.26R
TERRE HAUTE    CLOUDY    34  25  69 CALM      30.27R

$$

INZ030>032-037>040-046>048-054>057-064-065-202200-
CENTRAL INDIANA

CITY           SKY/WX    TMP DP  RH WIND       PRES   REMARKS
ANDERSON       CLOUDY    32  21  64 CALM      30.26R
CP ATTERBURY + CLOUDY    32  27  80 MISG      30.26S
FRANKFORT +    CLOUDY    32  26  80 CALM      30.26S
INDIANAPOLIS   CLOUDY    32  22  66 CALM      30.25R
-EAGLE CREEK   CLOUDY    32  22  66 CALM      30.25R
KOKOMO *+      PTSUNNY   34  25  69 CALM      30.26R
MARION +       CLOUDY    32  26  81 CALM      30.26R
MT COMFORT *+  PTSUNNY   32  18  55 CALM      30.25S
SHELBYVILLE    CLOUDY    34  24  67 CALM      30.25R
ZIONSVILLE +   CLOUDY    32  24  73 W3        30.26R

$$

INZ033-034-041-042-049-050-058-059-202200-
EAST CENTRAL INDIANA

CITY           SKY/WX    TMP DP  RH WIND       PRES   REMARKS
MUNCIE         CLOUDY    32  23  69 NW3       30.25R

$$

INZ060-061-067>069-081>083-085>088-202200-
SOUTHWEST INDIANA

CITY           SKY/WX    TMP DP  RH WIND       PRES   REMARKS
EVANSVILLE     CLOUDY    38  26  62 CALM      30.28R
HUNTINGBURG *+ CLOUDY    36  25  64 CALM      30.27S
WASHINGTON +   CLOUDY    34  24  67 CALM      30.27R

$$

INZ062-063-066-070>080-084-089>092-202200-
SOUTH CENTRAL AND SOUTHEAST INDIANA

CITY           SKY/WX    TMP DP  RH WIND       PRES   REMARKS
BLOOMINGTON    CLOUDY    33  25  72 CALM      30.25R

$$




USA.gov is the U.S. government's official web portal to all federal, state and local government web resources and services.